Hourly Data Report for October 21, 2015

All times are specified in Local Standard Time (LST). Add 1 hour to adjust for Daylight Saving Time where and when it is observed.

EUREKA CLIMATE
NUNAVUT

79°59'21.000" N
85°56'02.000" W
10.00 m
2401199
71613
NEK

Download Data

Hourly Data (October 2015)
Hourly Data Report for October 21, 2015
Temp Definition
°C
Dew Point Temp Definition
°C
Rel Hum Definition
%
Wind Dir Definition
10's deg

Wind Spd Definition
km/h
Visibility Definition
km
Stn Press Definition
kPa
Hmdx Definition


Wind Chill Definition


Weather Definition


TIME
00:00 -15.2 -17.1 85 14 33   99.86   -27 LegendNANA
01:00 -14.9 -16.6 87 12 29   99.88   -26 LegendNANA
02:00 -14.9 -16.6 87 14 29   99.84   -26 LegendNANA
03:00 -14.9 -16.8 85 12 28   99.85   -26 LegendNANA
04:00 -16.2 -18.2 85 14 29   99.87   -27 LegendNANA
05:00 -16.6 -18.3 86 13 31   99.88   -28 LegendNANA
06:00 -16.5 -18.6 84 13 32   99.87   -28 LegendNANA
07:00 -16.8 -19.0 83 13 31   99.85   -29 LegendNANA
08:00 -16.6 -18.8 83 13 30   99.86   -28 LegendNANA
09:00 -16.7 -18.8 84 13 25   99.86   -27 LegendNANA
10:00 -16.6 -18.9 83 12 24   99.86   -27 LegendNANA
11:00 -17.2 -20.2 77 13 21   99.89   -27 LegendNANA
12:00 -17.2 -20.2 77 13 19   99.89   -27 LegendNANA
13:00 -18.3 -21.7 75 15 17   99.90   -28 LegendNANA
14:00 -20.1 -22.9 78 27 2   99.93   -22 LegendNANA
15:00 -20.1 -23.3 76 7 6   99.96   -25 LegendNANA
16:00 -21.6 -24.4 78 7 5   99.97   -26 LegendNANA
17:00 -22.2 -24.9 79 9 2   99.98   -24 LegendNANA
18:00 -22.4 -24.8 81 9 5   99.98   -27 LegendNANA
19:00 -23.5 -26.2 79 5 5   99.98   -28 LegendNANA
20:00 -23.6 -26.1 80 5 5   99.97   -28 LegendNANA
21:00 -23.9 -26.4 80 7 6   99.97   -30 LegendNANA
22:00 -24.1 -26.5 80 4 5   99.97   -29 LegendNANA
23:00 -24.6 -26.8 82 8 3   99.99   -28 LegendNANA

Notes on Data Quality.

Legend

  • E = Estimated
  • M = Missing
  • NA = Not Available
  • ‡ = Partner data that is not subject to review by the National Climate Archives
Date modified: